Total_Precipitation_Accumulation
1.97 1.89 1.83 1.71 1.61 1.61 1.69 1.90 2.24 2.19 1.78 1.43 1.37 1.31 1.29 1.27 1.41 1.34 1.23 1.50 1.53 1.49 1.51 1.54 1.52 1.51 1.61 1.76 1.93 2.19 2.41 2.45 2.41 2.43 2.49 2.51 2.60 2.78
1.88 1.82 1.74 1.66 1.64 1.65 1.72 1.79 1.95 2.12 1.94 1.47 1.28 1.25 1.29 1.29 1.42 1.28 1.24 1.50 1.46 1.44 1.39 1.36 1.36 1.41 1.50 1.64 1.72 1.86 2.11 2.25 2.21 2.21 2.31 2.41 2.50 2.60
1.83 1.77 1.70 1.63 1.65 1.61 1.66 1.75 1.80 1.88 1.86 1.45 1.23 1.21 1.31 1.33 1.36 1.27 1.24 1.21 1.16 1.29 1.26 1.24 1.23 1.27 1.38 1.51 1.63 1.71 1.85 1.97 2.06 2.10 2.22 2.35 2.42 2.43
1.85 1.81 1.74 1.70 1.77 1.78 1.78 1.77 1.76 1.73 1.73 1.57 1.32 1.23 1.22 1.17 1.15 1.17 1.18 1.17 1.08 1.25 1.23 1.19 1.23 1.27 1.34 1.38 1.45 1.56 1.67 1.73 1.81 1.88 1.94 2.06 2.20 2.31
1.90 1.87 1.82 1.80 1.84 1.82 1.79 1.77 1.70 1.65 1.64 1.61 1.44 1.29 1.28 1.22 1.20 1.18 1.16 1.15 1.07 1.16 1.21 1.19 1.23 1.27 1.31 1.38 1.41 1.41 1.46 1.52 1.58 1.66 1.74 1.80 1.89 2.03
1.93 1.88 1.82 1.78 1.75 1.70 1.66 1.62 1.61 1.63 1.65 1.67 1.57 1.43 1.36 1.34 1.35 1.38 1.34 1.22 1.16 1.06 1.13 1.12 1.15 1.19 1.22 1.25 1.28 1.29 1.30 1.39 1.48 1.56 1.67 1.73 1.76 1.89
1.98 1.89 1.77 1.71 1.64 1.60 1.57 1.53 1.54 1.65 1.72 1.75 1.66 1.53 1.41 1.40 1.43 1.35 1.36 1.32 1.26 1.13 1.10 1.05 1.02 0.99 1.01 1.10 1.20 1.30 1.36 1.48 1.63 1.71 1.80 1.89 1.96 2.03
1.85 1.72 1.63 1.61 1.55 1.58 1.59 1.57 1.62 1.76 1.86 1.82 1.66 1.47 1.26 1.19 1.27 1.41 1.52 1.57 1.49 1.16 1.10 1.14 1.09 1.08 1.00 0.99 1.21 1.33 1.43 1.56 1.71 1.77 1.82 1.87 1.95 2.07
1.73 1.60 1.51 1.41 1.39 1.28 1.39 1.50 1.52 1.62 1.66 1.60 1.52 1.30 1.19 1.16 1.38 1.63 1.63 1.54 1.30 1.07 1.14 1.27 1.18 1.16 1.08 1.14 1.33 1.30 1.40 1.54 1.70 1.78 1.83 1.84 1.88 1.98
1.53 1.51 1.45 1.39 1.33 1.31 1.35 1.41 1.30 1.24 1.24 1.16 1.16 1.17 1.18 1.21 1.41 1.68 1.70 1.67 1.44 1.23 1.21 1.38 1.23 1.19 1.13 1.16 1.33 1.26 1.29 1.41 1.57 1.72 1.84 1.84 1.85 1.92
1.26 1.32 1.38 1.32 1.42 1.53 1.48 1.42 1.24 1.09 1.11 1.19 1.24 1.25 1.32 1.33 1.42 1.77 1.95 2.00 1.80 1.43 1.22 1.22 1.12 1.12 1.20 1.24 1.30 1.37 1.32 1.39 1.52 1.63 1.70 1.80 1.88 1.92
1.17 1.21 1.36 1.33 1.45 1.56 1.43 1.39 1.28 1.11 1.06 1.05 1.04 1.05 1.03 1.09 1.29 1.48 1.92 2.26 1.96 1.60 1.17 1.22 1.23 1.31 1.63 1.36 1.27 1.31 1.34 1.45 1.55 1.56 1.57 1.66 1.77 1.75
1.14 1.12 1.15 1.40 1.49 1.50 1.39 1.24 1.26 1.23 1.09 1.01 1.00 0.97 0.96 1.00 1.06 1.16 1.47 2.09 2.28 1.73 1.09 1.53 1.74 1.46 1.69 1.47 1.32 1.37 1.46 1.58 1.65 1.64 1.64 1.65 1.70 1.76
1.06 1.00 1.08 1.33 1.33 1.30 1.25 1.27 1.39 1.31 1.10 1.09 1.07 1.04 1.00 0.97 0.98 1.05 1.17 1.38 1.66 1.69 1.30 1.73 2.26 1.84 1.95 1.70 1.44 1.46 1.53 1.72 1.94 1.99 1.90 1.92 1.84 1.82
1.05 1.18 1.22 1.20 1.15 1.14 1.22 1.27 1.23 1.20 1.28 1.34 1.21 1.04 0.95 0.93 0.97 1.05 1.11 1.19 1.29 1.32 1.34 1.47 1.88 1.96 2.18 2.14 1.74 1.53 1.68 1.85 2.13 2.36 2.24 2.02 1.81 1.75
1.16 1.21 1.18 1.09 1.04 1.07 1.16 1.17 1.13 1.18 1.35 1.42 1.29 1.09 0.99 1.02 1.10 1.18 1.33 1.36 1.49 1.42 1.34 1.36 1.54 1.92 2.12 1.85 1.88 1.79 1.79 2.18 2.37 2.54 2.39 2.12 1.86 1.68
1.26 1.11 1.02 1.00 0.99 0.97 0.99 1.01 1.06 1.16 1.28 1.25 1.28 1.25 1.18 1.18 1.21 1.30 1.52 1.65 1.71 1.51 1.38 1.32 1.35 1.49 1.72 1.83 1.90 1.78 1.84 2.06 2.28 2.46 2.31 2.16 2.02 1.84
1.29 1.14 1.04 0.97 0.93 0.90 0.91 0.96 1.00 1.09 1.20 1.30 1.34 1.34 1.34 1.32 1.33 1.37 1.57 1.76 1.75 1.55 1.42 1.33 1.39 1.55 1.61 1.62 1.76 1.87 1.90 2.06 2.16 2.13 1.90 1.97 2.04 1.82
1.23 1.14 1.04 0.98 0.95 0.90 0.91 0.94 0.97 0.99 1.14 1.33 1.42 1.44 1.46 1.43 1.45 1.51 1.61 1.71 1.66 1.49 1.33 1.24 1.41 1.85 1.95 1.53 1.31 1.56 1.91 2.02 1.92 1.88 1.73 1.74 1.96 1.82
1.08 1.08 1.03 0.99 0.99 1.01 1.02 1.05 1.05 1.05 1.15 1.29 1.36 1.42 1.51 1.59 1.59 1.58 1.62 1.66 1.61 1.42 1.24 1.11 1.22 1.69 2.21 1.99 1.63 1.49 1.59 1.81 1.95 2.02 1.80 1.64 1.71 1.70
0.99 0.97 0.96 0.98 1.04 1.08 1.11 1.14 1.19 1.24 1.28 1.42 1.45 1.46 1.53 1.66 1.63 1.53 1.52 1.50 1.44 1.35 1.26 1.07 1.02 1.28 1.65 1.86 1.73 1.41 1.44 1.57 1.76 2.14 2.11 1.99 1.80 1.60
0.98 0.97 0.96 0.97 1.05 1.12 1.17 1.21 1.28 1.30 1.34 1.45 1.51 1.53 1.58 1.67 1.66 1.51 1.41 1.40 1.32 1.25 1.19 1.05 0.97 1.11 1.41 1.78 1.61 1.28 1.25 1.29 1.35 1.46 1.73 2.12 2.56 2.61
1.03 1.02 1.01 1.04 1.10 1.17 1.23 1.26 1.31 1.33 1.37 1.49 1.55 1.54 1.53 1.53 1.42 1.40 1.37 1.36 1.37 1.30 1.25 1.23 1.15 1.17 1.26 1.36 1.42 1.29 1.17 1.14 1.14 1.23 1.46 1.52 1.61 1.82